GEFSNE_500_meanwind_210.txt.gz
Wind_Speed
11 11 10 11 12 12 12 12 13 13 13 14 14 14 13 13 13 13 13 13 14 15 15 16 16 17 18 18 19 19 20 20 21 21 22 22 23 23
11 11 11 11 11 12 12 12 13 13 14 14 14 14 14 14 13 13 14 13 14 16 16 17 17 18 19 19 20 20 20 21 22 23 24 24 24 24
10 10 10 11 12 12 12 12 13 13 14 14 14 14 14 13 13 14 15 15 16 17 18 18 19 20 20 20 21 21 21 22 23 24 25 25 25 26
10 10 11 11 12 12 12 12 13 13 13 13 13 13 13 13 14 15 16 17 18 19 19 20 21 21 21 21 21 22 23 24 25 26 27 27 27 27
10 10 11 11 11 12 12 12 12 13 13 13 14 14 14 15 15 16 17 18 19 19 20 21 22 22 22 22 23 24 25 26 27 28 28 28 29 30
11 11 11 11 12 13 13 13 13 13 14 14 14 15 16 16 16 17 18 19 20 21 21 22 23 23 23 23 24 24 25 27 28 29 30 31 31 32
12 12 12 12 13 14 14 14 14 14 15 15 15 16 16 17 18 19 20 20 21 23 23 24 24 24 24 25 25 26 27 28 29 30 30 31 32 33
13 13 13 13 14 14 15 14 15 15 16 16 17 17 17 18 19 20 21 22 23 25 26 26 26 26 26 27 28 28 29 29 29 30 31 32 33 34
13 14 14 14 15 15 15 16 16 17 17 18 18 19 20 21 22 23 24 25 26 27 27 28 28 28 28 28 29 29 30 31 32 33 33 35 35 36
14 15 16 16 16 16 17 17 19 19 19 20 21 22 22 23 24 25 26 27 28 28 29 29 29 30 30 31 31 32 33 34 35 35 36 37 37 37
16 16 17 17 17 18 19 19 20 20 21 21 22 23 24 25 26 27 28 29 29 29 29 30 30 31 32 33 34 35 35 36 36 36 37 37 37 38
17 17 17 17 18 19 19 20 21 21 22 22 24 25 26 27 28 29 29 30 30 30 31 32 32 33 33 34 35 35 36 36 37 38 38 38 39 39
18 18 18 19 19 19 20 21 22 23 23 24 25 26 26 28 29 30 30 30 31 31 32 33 33 34 35 35 35 35 36 37 38 39 39 40 40 40
20 20 20 20 20 21 22 22 23 24 24 25 25 26 27 28 30 30 31 31 32 33 33 34 34 35 35 35 36 36 37 38 39 40 40 40 41 42
21 21 21 21 22 22 23 24 25 25 24 25 26 27 29 30 30 31 32 33 34 34 35 36 36 37 37 38 38 39 39 40 40 41 41 42 42 43
21 21 21 22 23 23 24 25 25 25 26 26 27 28 29 30 31 32 33 34 35 36 37 38 39 39 39 40 41 41 41 41 41 42 42 43 43 43
22 23 23 24 24 24 25 26 26 27 27 28 29 30 31 32 32 33 34 35 35 36 38 39 39 40 41 42 42 42 42 42 43 43 43 43 44 45
23 23 24 24 25 26 26 27 28 28 29 30 31 31 32 33 34 35 36 36 37 38 39 40 40 40 42 43 44 44 43 44 44 45 45 45 44 45
24 24 25 26 26 27 28 28 29 30 30 31 32 33 34 34 35 36 37 38 38 40 41 41 41 42 43 44 44 45 45 45 45 46 46 46 45 45
25 26 27 27 27 28 29 30 30 31 32 33 34 35 35 36 36 37 38 39 40 41 42 42 42 44 45 45 45 45 46 46 45 46 46 45 44 44
27 27 27 28 28 29 30 31 32 33 34 35 35 36 36 37 38 38 39 40 41 42 42 42 44 45 46 45 46 45 46 46 46 46 45 45 44 43
28 28 28 28 29 30 31 32 33 34 35 35 36 36 36 37 38 39 40 41 42 43 43 44 45 45 45 46 46 45 45 45 45 45 45 45 44 43
29 28 28 29 30 32 33 34 34 35 36 36 36 37 37 38 39 40 41 42 43 44 44 45 45 45 45 45 45 45 45 44 44 43 43 43 44 44

GEFSNE_500_meanwind_216.txt.gz
Wind_Speed
10 11 11 11 10 10 10 9 9 9 10 11 11 12 12 12 12 12 12 13 14 14 14 15 15 15 16 16 18 19 19 19 19 20 21 22 22 22
11 11 11 10 10 10 10 9 9 9 10 10 11 11 11 12 12 12 13 13 14 15 15 15 16 16 17 17 18 19 21 22 22 23 23 24 24 25
12 11 11 10 10 10 10 10 10 10 10 11 11 11 11 12 12 13 13 14 15 16 16 17 17 18 18 19 20 20 21 23 24 25 25 26 26 27
12 11 10 9 10 10 10 10 10 10 11 11 11 11 12 12 13 14 14 15 16 16 17 18 19 19 20 20 21 22 22 23 24 25 26 26 27 28
11 10 9 10 11 11 11 11 11 12 12 12 12 12 13 14 14 15 16 17 18 18 19 20 21 21 21 21 22 23 24 24 25 26 26 27 28 29
11 11 10 10 11 11 11 11 12 13 13 13 14 14 15 15 16 17 18 19 19 20 21 22 23 23 23 23 24 24 25 25 25 26 27 28 30 31
11 11 11 11 11 12 12 13 13 14 14 15 15 15 16 16 18 19 20 20 21 22 22 23 23 24 24 25 25 26 27 27 27 27 28 29 31 33
12 12 12 12 13 13 14 15 15 15 16 16 16 16 17 18 19 20 21 22 23 23 24 24 25 26 26 26 27 27 28 28 28 29 30 31 32 34
14 14 13 14 14 15 15 16 16 17 17 17 17 18 19 20 21 22 22 23 23 24 25 26 27 27 27 28 28 29 29 30 30 31 32 34 35 35
15 15 15 16 16 16 17 17 17 18 18 18 19 20 21 22 23 23 23 24 25 26 26 27 28 28 29 29 29 30 31 32 33 33 34 35 36 37
16 16 17 17 18 18 18 19 19 19 20 20 21 21 22 23 24 24 24 25 26 26 27 27 28 29 30 31 31 32 33 34 35 35 36 36 37 38
18 18 18 19 19 19 20 20 20 21 21 21 21 22 23 24 24 25 25 26 26 27 27 28 29 29 30 32 33 34 34 36 36 36 37 38 38 39
19 19 19 19 20 20 21 21 21 22 23 23 23 24 24 25 26 26 27 27 28 28 29 29 30 31 32 33 35 36 37 37 38 38 39 40 40 41
20 20 20 20 20 20 20 21 21 23 24 24 24 25 25 26 27 28 28 29 29 30 31 31 32 33 34 35 36 37 38 38 39 40 41 41 42 43
20 21 20 20 20 21 22 22 23 23 24 24 25 25 26 27 28 29 29 30 31 32 33 34 34 36 36 37 38 39 39 39 40 41 42 43 43 44
19 20 20 21 21 22 23 24 23 23 24 25 26 27 28 29 30 30 31 32 33 34 35 36 36 37 38 39 40 40 40 41 42 42 43 44 45 45
20 20 20 21 22 23 23 24 24 25 25 26 27 28 29 30 31 32 33 34 34 35 36 37 38 39 40 41 41 41 42 42 43 43 44 45 46 46
21 21 21 22 23 24 24 25 25 25 27 28 28 29 30 31 32 34 34 35 35 36 37 38 39 40 41 42 43 43 43 44 44 45 46 46 47 47
21 22 23 24 24 25 25 25 26 27 28 29 30 31 32 33 34 35 35 35 36 37 38 39 40 41 42 42 43 44 44 45 46 46 47 47 47 47
23 24 25 25 26 26 26 27 27 28 29 31 32 32 33 34 35 35 36 37 38 39 39 41 42 42 43 43 44 45 46 46 46 46 47 47 47 47
24 25 26 27 27 27 28 28 29 30 31 32 32 33 34 35 36 36 37 38 39 40 41 42 43 43 44 44 45 46 47 48 47 47 46 46 46 46
26 26 27 28 28 28 29 29 30 31 31 32 33 33 34 35 36 37 38 39 40 41 41 42 43 44 45 46 47 47 47 47 47 47 47 47 46 45
27 28 28 29 29 29 29 30 31 32 33 33 34 34 36 37 37 38 39 40 41 41 42 43 44 45 46 47 47 47 46 46 46 46 46 46 46 45

GEFSNE_500_meanwind_222.txt.gz
Wind_Speed
13 14 14 14 14 12 12 12 12 12 12 13 13 13 13 13 13 13 14 14 14 15 15 16 17 17 17 17 18 19 19 20 21 21 22 22 23 23
14 14 13 13 13 13 12 12 12 12 12 12 13 13 12 13 13 14 14 14 15 16 16 17 17 18 18 18 19 19 20 21 22 22 22 23 24 25
14 14 14 13 13 13 12 12 13 13 13 13 13 13 13 13 14 14 14 15 16 17 17 18 18 19 19 19 20 21 21 22 23 24 24 25 26 26
13 13 13 12 12 12 12 13 13 13 13 13 13 13 13 14 14 15 15 16 17 18 18 19 19 20 20 20 21 22 23 24 25 26 26 27 27 28
13 13 13 13 13 13 13 14 14 14 14 14 13 14 14 15 15 16 16 17 19 19 19 20 20 20 20 22 23 24 25 26 27 27 28 28 29 29
12 13 13 13 13 13 13 13 14 14 14 14 15 15 16 16 17 17 18 19 19 20 20 20 21 21 22 23 24 25 26 27 28 28 29 29 29 30
13 13 13 13 13 13 13 14 14 14 15 15 16 16 17 17 18 18 19 20 20 20 21 21 23 24 24 25 26 26 27 28 29 29 29 30 30 30
13 13 13 14 14 14 15 15 16 16 16 16 17 17 17 18 18 19 20 21 21 21 22 23 24 25 26 27 27 27 28 28 29 29 30 30 31 31
14 14 14 14 15 15 16 16 16 16 17 17 18 18 18 19 19 20 21 22 22 22 23 25 26 27 28 28 28 28 28 29 30 30 31 31 32 32
14 15 15 16 17 17 17 17 17 17 18 19 20 20 21 21 21 21 21 21 22 23 25 26 28 29 29 29 28 29 30 31 31 32 32 32 32 33
16 17 17 17 18 18 18 18 19 19 20 20 20 21 22 21 21 21 22 23 24 25 26 28 29 29 30 30 31 31 32 32 33 33 33 34 35 35
18 19 18 19 19 18 19 19 20 21 21 21 21 21 22 21 22 23 24 25 26 27 28 29 29 30 30 31 32 33 33 34 35 35 35 36 37 37
19 19 19 19 19 19 19 19 20 21 21 21 22 22 22 22 23 24 26 27 27 28 28 29 29 30 30 31 32 33 34 35 36 36 37 38 39 39
19 19 19 19 19 19 19 20 21 21 22 22 23 23 23 24 25 26 27 28 28 29 29 30 30 31 31 32 33 34 35 36 37 37 38 39 41 42
20 20 19 19 18 19 20 21 21 22 23 24 24 24 25 25 26 27 28 28 29 30 30 31 32 32 32 33 33 34 35 36 37 38 39 41 42 42
19 19 19 19 19 20 21 21 22 23 24 25 25 26 27 27 27 27 28 29 30 31 32 33 33 33 33 34 35 36 37 38 39 40 42 43 44 44
19 19 19 19 20 21 22 23 23 24 25 26 27 27 27 27 27 28 29 30 31 32 34 34 35 35 36 37 38 39 40 41 42 43 43 44 45 45
19 19 20 21 22 23 23 24 25 26 26 27 27 28 27 28 29 30 31 32 33 34 35 35 35 36 37 39 40 40 41 42 44 45 44 44 44 45
20 20 21 22 23 24 24 25 26 27 27 28 28 29 29 30 31 32 33 34 34 35 36 36 36 37 38 39 40 41 42 43 44 44 44 45 45 45
22 23 23 24 24 24 25 26 27 28 29 29 30 30 30 31 32 33 33 35 35 36 37 37 38 39 39 40 41 42 43 43 44 44 44 45 46 46
23 24 24 25 26 26 27 27 28 28 29 30 31 31 32 32 33 34 34 35 37 37 38 38 39 40 40 41 42 43 44 44 44 44 44 44 45 44
24 24 25 26 27 27 28 28 28 29 30 30 31 32 32 33 33 34 35 36 37 37 38 39 39 40 40 41 42 43 44 44 44 45 45 45 45 44
25 25 26 26 27 27 28 29 29 30 31 31 31 32 33 34 35 35 35 36 37 38 39 40 40 41 41 42 43 44 44 44 44 44 44 44 44 44

GEFSNE_500_meanwind_228.txt.gz
Wind_Speed
14 14 14 14 13 13 12 12 12 13 12 13 13 13 14 14 13 13 13 13 13 14 14 14 15 16 17 17 17 18 18 18 19 19 20 20 21 22
14 14 14 14 13 13 13 12 13 13 12 12 13 13 14 14 14 14 14 14 14 15 15 16 16 17 17 18 18 18 19 19 20 21 22 23 24 24
14 14 14 14 13 13 13 13 14 14 13 13 14 13 14 14 14 15 15 15 15 16 16 17 18 18 18 18 19 20 21 21 22 22 23 24 24 24
14 14 15 15 14 14 14 14 14 13 13 13 13 13 13 14 15 15 16 16 16 17 18 18 18 19 19 19 20 21 22 23 23 24 25 25 26 26
14 14 14 14 14 14 13 13 13 13 13 13 12 13 13 14 15 15 16 17 18 18 19 19 19 19 20 20 21 22 23 23 24 24 25 26 27 28
14 13 13 14 13 13 13 13 12 12 13 13 13 13 13 14 15 16 17 18 19 19 20 20 21 21 22 22 23 24 24 25 26 26 27 28 29 29
14 14 14 13 14 13 13 12 12 12 13 13 14 14 15 16 17 17 18 19 19 20 21 21 21 22 23 23 24 25 25 26 27 28 28 29 29 30
15 15 14 14 14 14 13 13 13 14 14 14 15 15 16 16 17 18 19 20 20 21 22 22 22 23 24 24 25 26 27 28 28 29 29 30 30 31
15 15 14 14 14 14 14 14 14 15 15 16 16 16 16 16 18 19 20 21 22 22 23 23 24 25 26 26 27 27 28 29 29 29 30 31 32 33
16 16 15 14 14 15 15 15 15 15 16 16 16 16 17 18 19 20 20 21 22 23 23 24 25 26 27 27 28 29 29 30 30 30 32 33 34 35
16 16 15 15 15 16 16 15 15 16 16 17 17 18 18 19 20 20 21 22 23 24 24 25 25 26 27 28 29 30 30 31 31 32 33 34 35 35
16 15 15 15 16 16 16 16 16 16 17 17 18 19 19 20 20 21 22 23 24 24 25 25 26 26 27 28 29 30 30 31 32 33 33 34 35 36
16 16 16 17 17 16 16 16 16 17 17 18 19 19 20 20 21 22 23 24 25 25 25 26 27 27 28 29 30 31 31 32 32 32 33 34 35 35
17 17 17 18 18 17 18 18 18 18 19 19 20 20 21 22 22 23 25 26 26 26 26 27 28 28 29 30 30 31 32 32 33 33 34 35 36 36
18 18 19 19 18 19 19 19 19 19 20 21 21 22 23 23 24 25 26 27 27 27 28 29 29 29 30 30 30 31 31 32 33 34 35 35 36 37
20 20 20 20 19 19 20 20 20 20 21 22 23 24 24 25 26 27 27 27 28 28 29 29 29 30 30 31 31 32 32 33 34 35 36 36 37 37
20 20 20 19 19 20 20 21 22 22 23 23 24 24 25 26 27 27 27 28 29 29 30 30 30 31 31 32 33 33 34 35 36 36 37 37 38 39
20 20 20 20 20 21 21 22 23 24 24 25 25 26 26 27 27 28 29 29 30 30 30 31 32 32 33 33 34 34 35 36 37 38 38 39 40 40
21 21 21 22 22 22 23 23 23 24 25 26 27 27 27 28 28 29 30 31 31 31 31 31 32 32 33 34 34 35 36 37 38 38 39 39 40 40
22 22 23 23 24 24 25 24 24 25 27 27 27 27 27 29 29 30 31 31 31 31 31 32 32 33 33 34 35 36 37 38 39 39 40 40 40 41
23 24 24 25 25 26 26 26 26 26 27 27 28 29 29 30 30 31 31 31 31 32 32 32 32 33 34 35 36 36 37 38 39 39 40 40 40 40
25 25 25 26 27 27 27 27 28 28 28 28 28 29 29 30 30 30 30 31 31 32 33 33 33 34 35 36 37 37 37 38 38 39 39 40 40 39
26 26 27 27 28 28 28 28 29 28 28 28 29 29 29 30 29 29 30 31 31 32 33 34 34 35 36 37 37 37 38 38 38 39 39 39 39 38

GEFSNE_500_meanwind_234.txt.gz
Wind_Speed
15 15 15 15 14 15 15 16 16 16 15 15 16 16 15 15 14 14 14 14 13 14 14 15 16 16 17 17 17 17 17 18 18 18 18 19 19 20
15 15 15 15 14 15 15 15 16 16 16 16 16 16 16 15 15 14 14 14 15 15 15 16 16 17 17 17 17 18 18 19 19 20 21 21 21 21
16 16 16 15 15 15 15 15 15 15 15 15 15 15 15 15 16 16 16 15 16 16 17 17 17 18 18 18 19 19 20 20 21 21 21 21 21 22
16 17 16 16 15 15 15 15 15 15 15 15 14 15 15 16 16 17 16 16 16 17 18 18 18 19 19 20 20 21 22 22 21 21 22 22 23 24
17 17 16 16 15 15 16 16 15 15 14 14 14 15 16 16 16 16 16 17 17 18 18 18 19 19 20 21 22 22 23 23 23 24 24 24 25 25
16 16 15 16 16 15 15 15 15 15 15 15 15 15 15 16 16 16 17 17 17 18 19 19 20 21 21 22 23 24 24 24 24 25 25 25 26 27
16 15 15 16 16 15 15 15 14 15 15 16 16 15 15 15 16 17 17 18 18 19 19 20 21 21 22 22 23 23 24 25 25 25 25 26 27 28
15 15 16 16 16 16 16 16 15 16 16 16 16 16 16 16 17 17 17 18 19 19 20 20 21 22 23 23 24 24 25 25 26 27 27 28 28 28
16 16 16 16 17 17 17 17 17 16 16 16 16 16 16 17 17 18 19 20 20 20 21 22 22 23 24 24 24 25 26 27 27 28 29 28 28 29
16 17 17 17 17 16 16 16 15 16 16 16 17 17 17 18 18 19 20 21 22 22 22 23 23 24 25 25 25 26 26 27 29 29 28 28 29 29
17 17 17 17 17 16 16 16 16 16 17 17 17 17 18 19 19 20 21 22 22 22 23 24 25 25 25 25 26 27 28 28 29 29 29 29 30 31
17 17 16 17 17 17 18 17 17 17 18 18 18 18 19 20 21 22 22 22 22 23 24 25 26 26 26 27 28 28 29 29 29 29 30 31 31 32
17 17 17 17 18 18 17 17 17 18 19 18 19 19 20 21 22 23 23 23 24 25 26 26 27 27 27 28 29 29 30 30 30 30 30 31 31 31
17 18 18 19 18 18 18 18 18 19 19 20 20 20 21 22 23 23 23 24 25 26 27 28 28 28 28 28 29 30 30 30 30 30 30 30 31 32
18 18 19 19 19 19 19 19 20 20 20 21 21 22 23 23 24 24 25 26 27 27 28 28 28 28 29 29 29 30 30 30 30 30 30 31 31 32
19 19 19 20 19 19 20 20 21 21 22 22 23 24 24 25 25 26 27 27 27 28 28 29 29 29 29 30 30 29 30 30 31 31 31 32 32 33
20 20 19 20 20 21 21 22 23 23 24 24 25 25 26 27 27 28 28 28 28 29 29 30 29 29 29 30 30 30 30 31 31 31 31 32 32 32
21 21 21 21 21 22 23 24 24 25 25 25 26 27 27 28 29 29 29 29 28 29 30 30 30 30 29 29 30 30 30 30 31 31 31 31 32 33
23 23 23 23 23 23 24 24 25 26 26 27 27 28 28 28 29 30 30 30 30 30 30 31 31 31 30 29 30 30 31 30 30 30 30 31 32 33
25 25 25 24 24 25 26 26 26 27 27 27 28 28 28 29 29 29 30 30 31 31 30 30 31 30 30 29 29 30 31 31 31 31 32 32 33 34
25 25 25 25 25 26 26 27 27 27 27 28 28 28 28 29 29 30 30 30 30 30 31 31 30 30 29 29 30 30 31 32 32 33 34 34 34 35
26 26 26 26 26 27 27 27 27 27 27 27 28 28 28 29 30 30 30 30 30 31 31 31 31 31 30 30 30 30 31 32 33 34 35 35 35 35
27 27 27 27 28 28 28 27 27 27 27 28 28 28 28 29 29 29 30 30 31 31 31 31 31 31 30 30 30 30 31 32 33 34 34 35 36 36

GEFSNE_500_meanwind_240.txt.gz
Wind_Speed
14 14 13 14 14 14 14 14 14 14 14 14 14 14 15 15 15 15 15 15 14 14 14 14 14 15 16 16 17 17 17 17 18 19 19 20 20 20
14 13 14 14 14 14 14 14 15 15 15 14 14 14 15 15 15 15 15 14 14 14 14 14 14 15 16 17 17 17 18 18 19 19 20 20 21 21
14 14 14 13 14 14 15 15 15 15 15 14 14 14 14 15 16 15 15 15 15 15 15 15 15 16 17 18 18 18 18 19 19 20 20 21 22 22
13 13 13 13 14 14 15 14 14 14 14 13 13 13 13 14 14 15 15 15 15 15 15 16 16 17 18 18 18 19 19 19 20 21 22 22 23 24
13 13 14 14 15 15 15 15 15 14 14 14 14 15 14 14 14 15 15 16 16 16 16 17 17 18 18 18 19 19 20 21 22 22 23 24 24 25
15 14 15 15 15 16 16 16 15 15 15 15 15 15 14 14 15 16 17 17 17 17 18 18 19 20 20 20 21 21 22 22 23 24 24 25 25 26
16 15 15 15 15 16 16 16 16 16 16 15 15 15 14 15 16 17 17 18 19 19 19 20 20 21 21 22 22 23 23 24 24 24 25 25 25 26
16 16 16 16 16 16 16 16 16 16 15 15 15 15 15 16 16 17 17 18 18 19 20 20 21 21 22 22 23 23 24 24 24 25 25 25 25 25
16 16 16 17 17 17 17 17 16 16 16 17 16 16 16 16 17 17 17 18 18 18 20 21 21 22 22 22 23 24 24 24 24 24 24 25 25 25
15 16 16 16 16 16 16 16 16 16 16 16 17 17 17 17 17 18 18 18 19 19 21 22 23 23 23 23 24 24 24 24 24 24 24 25 25 25
17 17 16 16 16 16 16 17 16 16 16 17 17 17 17 17 18 18 18 18 19 20 21 22 23 23 24 24 24 24 24 24 24 24 25 25 25 25
17 17 17 17 17 17 17 16 16 16 17 17 18 18 18 18 19 19 19 20 21 22 22 22 23 23 23 23 24 24 24 24 24 24 24 25 25 25
18 17 17 17 17 17 17 17 17 17 17 18 19 19 19 20 20 20 21 21 22 23 23 23 23 23 24 24 23 24 24 24 25 25 25 25 26 26
18 18 18 17 18 18 18 18 18 18 19 19 19 19 20 20 21 21 22 22 23 23 24 24 24 24 25 24 24 24 25 25 25 25 25 26 27 27
19 19 19 19 19 19 20 19 19 19 20 20 21 21 21 21 22 22 23 24 24 25 25 24 25 25 25 25 25 25 26 26 26 26 27 27 28 29
21 20 19 20 20 20 21 21 20 20 21 21 21 22 23 23 23 23 24 25 26 26 26 26 26 26 27 27 27 27 27 27 28 28 28 29 29 30
22 21 21 21 21 21 21 21 22 22 22 22 23 23 23 24 25 25 26 27 27 27 27 27 28 28 27 28 28 28 28 29 29 30 30 30 31 32
24 23 23 23 22 23 23 23 23 23 23 23 24 24 24 25 26 26 27 28 28 28 28 28 28 28 28 28 28 28 29 29 30 31 31 31 31 33
25 24 24 24 24 25 25 25 24 24 24 24 25 25 25 25 26 27 28 28 29 29 29 29 29 29 28 28 28 29 30 30 31 31 32 32 32 32
25 25 25 25 26 26 26 26 25 25 25 26 26 26 25 25 26 27 28 29 29 29 29 29 29 29 29 29 29 30 31 31 31 31 32 32 32 33
27 26 26 26 26 26 27 26 26 26 26 26 26 26 26 26 27 28 29 29 29 29 29 30 30 30 29 30 30 30 32 32 31 31 32 32 32 32
28 28 28 27 27 27 27 27 27 27 27 27 27 26 26 27 27 29 30 30 29 29 29 29 29 30 30 30 30 30 31 31 31 31 32 32 32 32
28 28 29 29 29 29 29 29 28 28 28 28 28 27 27 28 28 29 29 29 29 29 29 29 29 30 31 31 31 30 30 31 31 31 31 32 33 33

GEFSNE_500_meanwind_246.txt.gz
Wind_Speed
13 13 13 13 13 13 13 13 13 13 14 14 15 15 15 15 15 15 15 15 15 15 14 15 15 14 15 16 16 17 18 18 19 19 19 20 21 21
14 14 14 14 14 14 14 14 14 15 15 15 16 16 16 16 16 15 15 15 15 15 14 14 14 15 15 16 17 17 18 19 19 20 21 21 20 20
15 16 16 15 14 14 14 14 15 15 16 16 16 15 15 15 16 16 15 15 16 16 15 15 15 15 16 16 16 17 18 19 20 20 21 21 21 21
16 16 16 16 15 15 15 15 16 16 16 16 16 15 15 16 16 16 15 16 16 16 16 16 16 16 16 16 17 18 18 19 19 19 20 20 20 21
16 16 16 16 15 15 15 16 16 16 16 16 16 16 16 16 16 16 16 16 17 17 17 17 17 17 17 18 18 19 19 19 19 20 20 20 21 21
17 17 17 16 16 15 15 16 17 16 16 16 16 16 16 16 16 16 16 17 18 18 18 18 18 19 18 19 19 19 19 20 20 20 20 21 21 21
17 17 17 16 16 15 15 16 16 16 16 16 16 15 16 16 16 16 17 18 18 19 19 19 20 20 19 19 19 19 19 19 19 20 20 21 21 22
17 17 17 17 16 16 16 16 17 17 16 16 16 16 16 16 17 17 18 18 18 19 20 20 20 19 19 19 19 19 19 19 20 20 20 21 21 22
17 17 16 16 16 17 17 17 17 17 17 17 17 17 17 17 17 18 18 18 18 19 19 19 19 19 19 20 20 20 20 20 20 21 21 21 22 22
18 16 16 17 18 18 18 18 18 18 18 18 17 17 17 17 18 18 18 19 19 20 20 20 20 20 20 20 20 20 21 21 21 22 22 22 22 23
18 17 17 18 18 19 19 19 19 19 18 18 18 17 17 17 18 19 19 20 20 21 21 21 21 21 21 21 21 22 22 21 21 22 23 23 23 24
19 19 19 20 20 20 20 20 19 19 19 18 18 18 18 18 19 20 20 21 22 21 21 21 21 21 21 22 22 23 22 22 23 23 23 23 24 24
20 20 21 21 21 20 20 20 20 20 19 19 19 19 19 20 20 21 22 22 22 22 21 21 21 22 22 22 22 22 23 23 23 24 24 24 24 25
21 21 22 22 22 22 22 21 21 21 20 21 21 21 21 21 21 22 22 23 23 23 22 22 23 22 22 23 23 23 24 24 25 25 25 25 26 26
22 22 22 22 22 22 23 23 22 22 22 22 22 23 23 23 23 23 23 23 24 23 24 24 23 23 24 24 24 24 24 25 25 25 26 26 27 27
23 23 23 23 23 23 23 24 24 24 23 23 23 23 24 24 25 25 24 24 24 24 24 24 24 24 25 24 24 25 25 25 26 26 27 27 28 29
24 24 24 24 25 25 24 25 26 26 25 25 25 25 25 25 25 25 25 25 25 25 25 25 25 26 26 25 25 26 27 27 27 27 28 29 29 30
26 25 25 26 26 26 26 26 27 27 27 27 27 27 26 26 26 26 27 26 26 26 26 26 26 26 26 26 26 27 28 28 29 29 30 30 31 31
27 26 26 26 26 26 27 27 28 28 29 28 28 27 27 27 26 26 27 27 27 27 27 26 27 26 26 26 27 29 29 29 30 31 31 31 32 32
26 27 27 27 27 27 28 28 29 29 29 29 29 28 28 28 27 27 27 27 27 28 28 28 28 28 28 28 28 29 30 31 32 32 32 32 32 33
28 28 28 28 28 28 28 29 29 29 29 29 29 28 28 28 29 28 28 27 28 29 29 28 29 29 29 29 29 30 31 32 33 33 33 33 33 33
29 29 29 29 28 28 29 29 29 29 29 29 29 29 29 29 29 29 29 28 29 29 29 30 30 30 30 30 30 30 31 32 32 33 33 33 34 33
30 30 30 29 29 29 29 29 29 28 28 29 29 30 30 30 30 29 29 29 29 30 30 30 30 30 29 30 30 30 31 31 32 33 33 33 34 34

GEFSNE_500_meanwind_252.txt.gz
Wind_Speed
13 13 13 13 13 13 13 14 13 13 14 15 15 15 15 15 16 16 15 15 15 15 16 16 16 15 15 15 15 15 15 16 16 16 16 18 18 19
14 14 14 14 14 14 14 15 14 14 14 15 15 16 16 16 16 16 16 16 16 17 17 17 16 16 16 16 15 15 15 16 16 16 17 18 18 18
15 15 15 15 15 14 14 15 14 14 15 15 16 16 16 17 17 17 16 16 16 17 17 17 17 17 17 17 16 17 17 17 17 18 18 19 19 19
16 16 16 16 16 16 15 15 15 15 15 15 16 16 16 17 16 16 17 17 16 17 18 17 17 17 17 17 18 18 19 19 19 19 19 19 19 20
17 17 17 17 17 16 16 16 16 16 16 16 16 16 16 16 16 16 17 17 17 17 17 17 17 17 18 18 18 19 19 20 20 19 20 19 19 20
18 18 17 17 17 17 17 17 16 16 16 16 16 16 16 16 16 16 17 17 17 18 18 18 18 18 18 19 18 18 19 20 20 20 20 19 19 19
18 18 18 18 18 17 17 17 17 17 17 17 17 16 16 17 17 18 17 18 19 19 19 19 18 18 18 19 19 20 20 20 20 20 19 19 19 19
19 19 19 19 19 18 18 17 17 17 17 16 16 16 17 17 17 18 18 19 19 19 19 19 19 18 18 19 20 20 20 20 20 20 20 20 19 19
19 19 19 19 19 19 19 19 18 18 17 17 17 17 17 18 19 19 19 20 20 20 20 19 19 19 19 19 20 20 20 21 20 20 21 20 20 20
20 20 20 20 20 20 19 19 19 19 19 19 19 19 19 19 19 20 20 20 20 20 19 19 20 20 19 20 20 20 20 20 21 21 21 21 21 21
20 20 20 20 20 20 19 19 19 19 20 20 21 21 21 21 21 22 22 22 22 21 21 21 21 21 21 21 21 21 20 20 21 21 21 21 22 22
21 21 21 21 21 21 20 19 20 20 20 21 21 21 22 22 23 23 23 23 22 22 22 22 22 22 22 22 22 22 22 22 23 23 23 23 24 24
21 21 21 21 21 20 20 20 20 20 21 21 21 21 22 22 23 22 22 23 23 23 24 24 24 24 24 23 23 24 24 24 24 24 25 25 25 26
21 21 20 20 20 21 21 22 21 21 22 22 22 22 23 23 23 22 23 23 24 24 24 25 25 25 25 25 25 25 25 25 25 25 25 26 26 27
22 21 21 21 21 21 21 22 23 23 23 23 23 23 23 24 24 24 25 25 25 25 25 25 25 25 26 26 26 26 26 26 27 27 27 27 27 28
24 24 24 24 24 24 23 23 24 24 24 24 23 23 24 25 25 26 26 26 26 26 26 26 26 26 26 26 26 26 27 27 27 28 27 28 28 28
25 25 25 25 25 25 26 25 25 25 25 25 26 25 25 26 26 26 26 27 27 27 26 26 26 27 27 27 27 27 28 28 28 28 28 28 29 29
25 25 25 25 25 25 26 26 26 26 26 26 27 27 26 26 26 26 27 27 27 27 27 28 28 28 28 28 28 28 28 29 29 29 29 29 29 30
26 26 26 26 26 26 27 27 27 27 27 27 27 27 27 27 27 27 27 27 27 28 28 28 29 29 29 28 28 29 29 29 29 29 29 29 29 29
26 26 27 27 27 27 27 27 27 28 28 27 27 27 27 27 27 28 28 28 28 28 28 28 28 28 28 28 28 29 29 29 29 29 29 29 29 30
27 27 27 27 27 27 28 28 28 28 28 28 28 28 28 28 28 28 28 28 29 29 29 28 28 29 29 29 28 28 28 28 28 29 29 30 30 30
28 27 27 28 28 28 29 29 29 29 29 29 29 29 29 29 29 29 29 29 30 30 29 29 29 29 29 29 29 28 28 28 29 30 30 30 30 30
29 29 30 29 29 30 30 31 31 30 30 30 30 30 30 31 31 31 31 30 30 30 30 30 31 31 31 30 29 29 29 29 30 30 30 31 32 32

GEFSNE_500_meanwind_258.txt.gz
Wind_Speed
16 15 15 15 15 14 14 14 14 14 15 15 15 15 15 15 16 16 16 15 15 16 16 16 16 16 16 16 16 16 16 15 15 15 15 15 15 15
16 16 16 16 15 14 14 14 15 15 15 16 16 16 16 16 17 16 16 16 16 16 16 16 17 17 17 17 17 17 16 16 17 16 16 17 17 17
17 17 17 16 16 15 15 15 15 16 16 16 17 16 16 17 17 16 16 16 16 17 16 17 17 17 17 17 17 17 17 17 17 18 18 18 18 17
17 18 17 17 17 16 16 16 16 16 16 17 17 16 17 16 16 17 17 17 17 17 17 17 17 17 17 17 17 17 17 17 17 17 18 18 18 18
18 18 18 18 18 18 17 17 17 17 17 17 16 16 16 17 16 17 17 17 17 17 17 17 17 17 17 17 17 18 17 17 17 18 18 18 19 19
20 19 20 19 19 19 18 17 17 17 17 17 17 17 16 17 17 17 17 17 17 18 17 18 18 19 18 18 18 18 18 18 17 18 19 19 19 19
20 20 20 20 19 19 18 18 18 17 17 17 17 17 17 17 17 17 17 18 18 18 18 18 19 20 19 19 19 19 19 19 19 19 20 20 20 20
20 20 20 20 20 19 18 18 18 18 18 18 17 17 17 17 17 17 18 18 18 18 19 19 19 19 19 19 19 19 19 19 19 19 19 20 20 20
20 19 19 19 20 19 19 20 19 19 19 18 17 18 18 18 18 18 18 19 18 19 19 19 20 20 20 19 19 19 19 19 19 19 19 20 20 21
21 21 20 20 20 20 20 20 19 19 19 19 18 18 19 19 19 19 19 19 20 20 20 20 20 21 21 20 20 20 20 19 19 20 20 21 21 22
21 21 21 21 21 21 21 20 20 20 20 20 20 20 20 20 20 20 20 20 20 20 20 20 20 20 20 20 20 20 21 21 21 21 22 22 22 22
22 22 22 21 21 21 21 20 20 20 20 20 20 20 20 21 21 21 21 21 21 21 21 21 21 21 21 21 21 22 22 23 23 23 23 23 23 23
23 23 23 22 22 22 21 21 21 21 21 21 21 21 21 21 22 23 22 23 23 23 22 21 21 21 22 22 22 23 23 23 24 24 24 24 24 24
24 24 23 23 23 23 22 22 22 22 22 22 22 22 22 23 23 23 24 24 23 23 23 22 22 23 23 23 23 24 24 23 24 24 24 24 25 26
25 24 24 24 24 24 23 23 23 23 23 23 24 24 24 24 25 25 25 24 24 24 24 24 24 25 24 24 24 24 25 25 25 26 26 26 27 28
26 25 25 25 25 25 24 24 24 24 24 25 25 25 26 26 26 26 25 25 25 25 25 25 25 25 25 25 25 25 26 26 26 27 28 28 29 30
27 26 26 26 26 26 26 26 26 26 26 26 26 27 27 27 27 26 26 26 26 26 26 26 26 26 26 26 27 27 27 28 28 29 29 30 30 31
27 27 27 27 27 27 27 26 26 26 26 26 26 26 26 27 27 27 27 27 27 27 27 27 27 27 27 27 28 28 28 29 29 30 30 30 30 31
29 29 28 28 27 27 27 27 27 26 26 26 26 26 27 27 27 27 26 26 26 26 26 26 27 27 27 28 28 29 30 30 30 30 31 31 30 30
29 29 29 28 28 27 27 27 27 28 28 28 28 28 28 28 27 27 27 27 27 27 27 28 28 29 29 29 29 29 30 31 31 30 30 30 29 29
29 29 28 28 28 28 29 29 29 29 29 30 30 30 29 29 29 28 29 29 29 29 29 30 30 31 31 31 30 29 30 30 30 30 30 30 30 29
29 28 28 28 28 28 29 30 30 31 31 31 31 31 31 31 30 30 30 30 30 31 31 31 32 32 32 32 31 30 30 29 29 30 30 31 31 30
28 28 28 28 28 29 29 29 30 30 31 31 31 31 31 31 31 31 31 32 31 32 32 32 32 33 33 32 32 31 30 30 31 31 31 31 32 31

GEFSNE_500_meanwind_264.txt.gz
Wind_Speed
16 15 15 15 15 15 15 15 15 14 15 16 16 16 16 16 16 16 15 16 16 16 16 16 16 16 16 16 16 16 16 16 16 17 17 17 16 16
17 17 16 16 16 16 16 16 16 16 16 16 16 15 16 16 15 15 15 15 15 15 15 16 16 17 17 17 17 17 18 18 17 17 16 16 15 15
18 17 16 16 16 17 17 17 17 17 17 16 15 15 16 16 16 16 15 16 16 16 16 17 17 17 17 17 17 17 17 17 17 17 16 16 16 17
17 17 16 16 17 18 18 17 17 17 17 16 16 16 16 16 16 16 16 16 16 16 16 17 17 17 17 17 17 17 17 16 16 17 17 17 18 18
18 17 17 17 17 17 17 17 17 17 17 16 16 16 16 16 16 16 16 16 15 16 16 16 17 17 17 17 17 18 18 18 18 18 18 18 18 19
19 19 18 18 17 17 17 17 17 17 17 17 16 17 17 17 17 16 16 16 15 16 16 17 17 17 17 18 18 18 19 19 18 18 19 18 18 18
19 19 18 18 18 17 18 18 18 18 18 18 18 17 17 17 17 17 16 16 16 17 17 18 18 18 18 19 19 19 19 19 19 18 18 19 19 18
19 19 19 19 19 18 18 18 18 18 18 18 18 18 18 18 17 17 17 17 17 18 18 18 18 19 19 19 19 19 19 19 19 19 18 18 19 19
20 20 20 20 20 19 19 19 18 18 18 18 19 19 19 19 19 19 19 19 18 18 18 18 18 18 19 19 19 19 20 20 19 19 19 19 20 20
22 22 21 21 20 19 19 19 19 19 19 19 19 20 20 20 20 20 19 20 20 20 19 18 18 19 19 19 20 20 21 21 21 21 20 20 20 20
23 23 22 22 21 21 21 21 20 20 21 20 20 20 20 20 20 21 20 20 20 20 20 20 19 20 20 20 21 21 22 22 22 22 22 22 21 21
23 23 23 23 23 23 22 22 22 22 22 22 22 22 22 22 22 22 21 20 20 21 21 21 21 21 21 21 21 21 22 22 22 22 22 22 22 23
23 23 23 23 23 23 23 23 23 23 23 23 23 24 24 24 23 23 23 22 22 22 22 22 22 22 22 21 21 21 21 22 22 22 23 23 24 24
24 25 25 25 24 24 24 24 24 24 24 24 25 25 25 26 25 25 24 24 24 23 23 24 23 23 22 22 22 22 22 22 23 23 23 24 25 25
26 27 27 26 26 26 26 26 26 26 25 25 25 25 25 25 25 25 25 25 25 25 25 25 24 24 24 24 24 24 24 24 24 24 25 26 26 26
27 28 28 27 27 27 27 26 26 26 26 26 26 26 26 25 25 25 25 25 25 25 26 25 25 25 25 25 25 25 26 26 26 26 26 27 27 27
27 28 28 28 28 28 27 27 28 28 28 27 28 28 28 27 27 27 26 26 26 25 26 26 26 26 26 26 26 26 27 27 28 28 27 27 28 28
27 27 27 27 28 28 28 29 29 30 30 30 30 31 30 30 29 29 28 28 27 27 27 27 28 27 27 26 27 28 28 29 30 29 29 29 29 30
27 27 27 28 28 28 29 29 30 30 30 30 31 31 32 32 31 31 30 30 29 29 29 29 29 29 29 29 29 30 30 30 30 31 31 31 31 32
28 28 28 28 28 29 29 29 30 30 31 31 31 31 31 32 32 31 31 31 31 31 31 31 31 31 30 30 30 31 31 31 32 32 32 32 32 32
28 28 29 29 29 29 30 29 29 30 31 31 32 31 31 32 31 31 31 31 31 31 31 31 32 32 32 32 30 30 31 33 33 33 33 33 32 32
28 29 29 29 29 29 29 29 29 30 30 31 31 31 31 31 30 30 30 31 31 31 31 31 32 33 33 32 32 31 32 34 34 34 34 33 33 32
28 29 28 28 28 28 28 28 28 29 29 29 29 30 30 31 31 31 31 32 32 32 32 32 33 33 34 34 34 34 34 35 35 35 34 34 34 34

GEFSNE_500_meanwind_270.txt.gz
Wind_Speed
16 16 17 17 17 17 17 17 17 17 17 17 18 18 18 18 17 17 17 16 17 16 17 17 17 18 18 18 18 18 18 19 19 19 19 18 18 18
18 18 18 18 18 18 18 18 17 17 17 17 18 18 18 18 18 17 16 15 15 16 17 18 18 18 18 18 19 19 19 19 19 19 18 18 18 18
19 19 19 18 19 19 18 18 18 18 18 18 18 18 18 18 18 17 17 16 16 17 17 17 17 17 18 18 18 18 18 17 18 18 18 18 18 18
19 20 20 20 19 19 19 18 18 18 19 19 18 18 18 18 17 17 17 17 17 18 17 17 17 17 17 17 17 17 17 17 17 17 17 18 18 18
21 21 20 20 19 19 19 19 18 19 19 19 18 18 18 18 18 17 17 17 18 18 18 18 18 17 17 17 17 17 17 17 17 17 17 17 18 18
22 21 21 20 20 20 19 19 19 20 20 19 19 18 18 18 18 18 18 17 18 18 18 18 18 18 18 17 17 17 17 17 17 18 18 18 18 19
22 22 21 20 20 20 20 20 20 20 20 20 20 19 18 18 18 18 18 19 19 19 18 18 19 19 18 18 18 17 17 18 18 19 19 19 19 20
22 22 21 20 21 21 21 21 21 20 20 20 20 19 19 19 18 19 19 20 20 20 20 20 20 19 19 19 19 18 19 19 20 21 21 21 21 21
22 22 22 22 22 22 22 21 21 21 21 21 20 20 20 20 20 20 20 20 21 20 21 20 21 20 20 20 21 21 21 21 21 21 22 23 23 23
23 23 24 23 23 23 22 22 22 22 22 22 21 21 21 22 22 21 21 21 22 22 21 21 21 21 21 21 22 22 22 22 22 22 22 23 23 24
24 24 24 24 24 23 23 22 22 23 23 22 22 22 21 22 22 22 22 22 22 22 23 23 22 22 22 22 23 23 23 23 23 24 24 24 24 24
24 23 23 23 23 23 23 23 24 24 24 23 23 23 23 23 23 23 23 23 22 22 22 23 24 24 24 24 24 24 24 24 24 24 24 24 24 24
24 24 24 24 23 23 24 24 25 25 25 26 26 25 25 25 25 25 25 24 24 23 22 23 23 23 24 24 25 25 25 24 24 24 25 25 25 25
25 25 25 25 25 25 25 26 26 26 26 27 27 27 27 26 26 26 27 27 26 26 25 26 25 25 25 25 25 26 26 26 26 25 25 25 26 26
25 26 26 26 26 27 26 26 27 27 27 27 27 27 28 28 28 28 28 28 29 28 28 28 28 28 27 27 27 27 27 27 27 27 27 26 26 27
25 25 26 26 26 27 27 28 28 28 28 29 29 29 29 30 30 31 31 30 30 30 30 30 30 29 28 28 28 28 28 28 28 28 28 27 26 27
26 26 26 26 26 27 28 29 29 29 29 29 29 30 30 31 31 31 32 32 32 32 31 31 31 30 30 29 29 29 29 29 29 29 29 28 28 28
26 26 27 27 27 28 29 29 28 29 29 30 30 30 31 31 31 31 32 32 32 32 32 32 32 31 31 30 30 30 31 30 31 31 30 30 29 30
26 26 27 28 28 28 29 29 29 29 29 30 30 30 31 31 31 32 32 32 32 32 32 32 32 32 31 31 31 32 32 31 32 31 31 31 30 31
27 27 27 27 28 28 28 28 28 29 29 30 30 31 31 31 31 32 32 32 32 32 32 32 32 32 32 32 31 31 32 32 32 32 32 32 32 32
27 27 27 27 28 28 29 29 29 29 29 30 30 30 31 31 31 31 32 32 32 32 31 31 32 32 32 32 31 30 31 32 33 32 32 33 33 32
28 28 28 28 28 29 29 29 29 29 29 29 30 30 30 30 31 31 31 31 31 31 31 31 31 32 31 31 31 31 31 31 32 33 33 33 33 32
28 28 29 29 29 29 29 29 29 29 29 29 29 29 29 29 29 29 29 29 29 29 29 30 31 31 31 31 31 31 31 31 32 32 33 33 33 33

GEFSNE_500_meanwind_276.txt.gz
Wind_Speed
19 18 18 17 17 17 17 17 17 18 18 18 18 18 18 18 18 18 17 18 18 18 19 19 18 18 17 17 17 17 18 18 19 20 19 19 20 20
19 18 18 18 18 18 18 18 18 18 18 18 19 18 18 18 18 18 18 18 18 18 18 18 18 18 18 18 17 17 17 18 18 18 19 19 19 20
19 19 19 19 18 19 19 19 18 18 18 19 19 19 19 19 19 19 19 18 18 18 18 18 18 17 17 17 17 18 17 17 17 17 18 19 19 20
19 19 19 19 19 20 20 20 20 20 19 19 18 19 19 19 19 19 19 18 18 18 18 18 17 17 17 17 17 17 17 17 17 18 18 19 19 19
20 20 20 20 20 19 20 20 20 20 20 20 19 19 19 19 19 19 19 19 18 18 18 18 18 18 17 17 17 17 17 17 17 18 18 18 19 19
20 20 20 20 20 19 19 20 20 20 20 20 20 20 19 19 19 18 18 19 19 18 18 18 19 19 19 19 19 19 19 19 19 18 19 19 19 19
20 20 20 20 20 20 20 20 21 21 20 21 21 20 20 19 19 19 19 19 19 20 20 20 20 20 19 19 20 20 20 21 21 20 20 20 21 20
21 21 22 22 22 22 22 21 21 21 20 21 21 20 20 20 20 20 20 20 20 21 21 21 21 21 20 20 20 20 20 21 21 22 22 22 22 22
21 22 22 23 23 23 23 23 22 22 21 22 21 21 21 21 21 21 21 21 21 21 22 22 22 22 22 22 21 21 21 21 22 23 23 24 24 24
23 23 23 23 23 22 22 22 22 22 22 22 22 22 22 23 23 22 22 22 22 22 22 23 23 23 23 23 23 23 22 22 22 23 24 25 25 25
23 24 24 23 23 23 23 23 23 23 23 23 22 22 23 23 24 24 24 24 23 24 24 24 23 24 24 25 24 24 24 24 23 24 25 26 27 26
25 25 25 25 24 25 25 25 24 24 25 25 25 25 24 24 24 25 25 25 25 25 25 25 24 24 24 24 25 25 24 24 24 25 25 26 26 26
26 26 26 26 26 27 26 26 26 26 27 27 26 26 26 26 26 26 26 26 26 25 25 25 25 25 25 24 24 25 25 25 25 26 26 26 27 27
27 27 27 27 27 27 27 27 27 27 27 27 27 27 27 27 27 27 27 27 27 26 26 26 27 27 27 27 27 27 28 28 28 27 28 27 27 27
28 28 28 28 28 28 28 27 27 27 27 28 28 28 28 29 29 28 28 28 28 28 28 28 28 28 29 29 29 29 29 29 29 29 29 29 28 28
28 27 27 27 27 28 28 28 27 28 28 28 28 29 29 29 29 29 30 29 29 29 29 29 29 29 29 30 30 30 30 30 30 30 30 30 30 29
27 27 27 27 27 28 28 28 28 28 29 29 29 29 29 30 30 30 30 30 30 30 29 30 30 30 30 30 30 30 31 31 30 30 31 31 31 30
27 27 27 28 28 28 28 28 28 28 28 28 28 28 29 29 30 30 30 30 30 30 30 30 30 30 30 30 30 30 30 30 31 31 31 31 31 31
27 27 28 28 27 27 27 27 27 27 27 27 27 28 28 28 29 30 30 30 30 30 31 31 31 31 31 31 31 31 30 30 30 31 31 31 31 31
27 27 27 27 27 27 27 27 26 26 27 27 27 27 28 28 28 29 29 29 29 30 31 31 31 31 31 30 30 30 31 31 30 30 30 31 31 31
26 26 26 26 26 26 26 26 26 27 27 27 27 27 27 28 27 28 28 28 29 30 30 30 30 30 30 30 29 30 30 31 31 30 30 30 30 30
26 26 26 26 26 27 27 27 27 27 27 28 28 27 27 28 28 28 28 28 29 29 29 29 30 30 30 30 29 29 29 29 30 30 30 30 30 30
27 27 27 27 27 27 27 28 28 28 27 27 27 27 27 27 27 27 27 27 27 27 28 28 29 29 29 29 28 28 28 29 29 29 29 30 30 31

GEFSNE_500_meanwind_282.txt.gz
Wind_Speed
17 17 18 17 17 18 18 18 18 17 18 18 18 18 18 18 18 18 18 18 18 18 18 17 17 17 17 17 16 16 16 17 17 17 17 17 17 16
18 18 18 18 18 18 18 18 18 18 18 18 18 18 18 18 18 19 19 18 18 18 17 17 17 17 17 17 16 16 16 16 17 17 17 17 17 17
19 19 18 18 18 19 19 19 19 19 18 18 17 17 17 18 19 19 19 19 19 18 18 18 17 17 17 17 17 17 17 17 17 17 18 18 18 18
20 20 19 19 19 19 19 20 19 19 19 19 18 18 18 19 19 20 20 20 20 20 19 19 18 18 18 18 18 18 18 18 18 18 18 18 18 18
20 20 20 20 20 20 20 20 20 19 19 20 20 19 19 20 20 20 20 20 20 20 19 19 19 18 18 18 18 18 19 19 19 20 19 19 19 19
20 20 20 20 20 20 20 20 20 20 20 20 20 20 20 19 20 20 20 19 19 19 19 19 19 19 19 19 19 19 19 19 19 20 20 20 20 20
20 20 20 20 21 21 21 21 21 21 21 21 20 20 20 20 20 20 20 20 19 19 19 20 20 20 19 19 20 20 20 20 20 21 21 22 22 22
20 20 20 21 21 21 21 22 22 22 22 22 22 21 21 21 22 22 22 21 21 21 21 20 21 21 20 21 21 21 22 22 22 21 22 22 23 23
21 21 21 21 21 22 22 23 23 23 23 23 23 23 22 22 22 22 22 22 22 22 22 21 22 21 22 22 22 23 23 22 23 23 22 23 23 23
22 22 22 22 22 23 23 24 24 23 23 24 24 23 23 23 23 23 22 22 21 22 22 22 22 22 23 23 23 23 23 23 23 23 23 23 24 24
22 23 23 23 24 24 25 24 24 24 24 24 24 25 24 24 24 24 23 23 23 22 23 23 23 24 24 24 24 24 24 24 24 24 25 25 25 25
22 22 23 24 24 25 25 25 24 25 25 25 25 25 25 25 25 25 25 25 25 25 24 24 24 24 24 25 25 25 26 26 26 26 26 26 26 27
23 23 24 25 25 26 26 26 26 26 26 26 26 26 26 26 26 26 26 27 26 26 26 26 25 25 25 25 25 26 26 26 27 27 27 27 27 28
24 24 24 24 25 26 27 27 27 27 27 27 27 27 27 27 27 28 28 28 28 27 27 27 27 27 27 27 27 27 27 27 28 28 28 28 28 28
25 25 25 25 26 27 27 27 27 27 28 27 27 27 28 28 29 28 28 28 28 28 28 29 29 28 28 29 29 29 29 29 29 30 30 30 30 29
25 25 25 26 26 26 26 27 27 27 27 28 28 27 27 28 29 28 28 28 28 28 29 29 29 29 29 29 29 29 29 29 29 30 30 30 30 30
26 26 26 25 26 26 27 27 27 27 27 28 28 28 28 28 28 28 28 28 28 28 28 29 29 30 30 29 29 29 29 29 30 30 30 30 29 30
26 27 26 26 26 26 26 27 28 28 28 28 28 28 28 28 28 28 27 27 28 28 28 29 29 29 30 30 30 30 30 30 30 30 29 29 29 29
27 26 26 25 26 26 27 27 27 28 28 28 28 28 28 27 27 27 27 27 28 28 29 29 29 30 30 29 29 29 29 29 29 29 29 28 27 28
27 26 26 26 26 26 26 27 27 27 27 27 28 28 28 27 27 27 27 27 28 28 28 29 29 29 29 29 28 28 28 28 29 29 29 28 28 28
26 26 25 25 25 25 26 26 27 27 27 27 27 27 28 28 28 28 27 28 28 27 27 27 27 28 28 28 27 27 27 28 28 28 28 28 27 27
27 26 26 26 26 26 26 27 27 27 27 28 28 28 28 29 28 28 28 28 28 27 27 27 27 27 27 27 26 26 26 26 27 27 27 28 27 27
27 27 27 27 27 28 28 28 28 28 28 28 29 29 28 28 28 28 28 28 27 27 26 26 27 27 27 27 27 26 26 26 26 26 26 27 28 28

GEFSNE_500_meanwind_288.txt.gz
Wind_Speed
16 16 16 16 16 17 17 17 17 17 16 17 18 18 18 18 17 18 18 18 17 17 17 17 17 17 17 17 17 17 18 17 17 18 18 18 17 18
17 17 17 16 16 17 18 19 19 18 18 17 17 17 17 17 18 18 18 18 18 18 18 18 18 18 18 17 17 18 18 18 18 18 19 18 18 19
17 17 18 18 17 17 18 18 19 19 19 18 18 18 18 18 18 19 19 19 19 19 19 20 20 19 18 18 18 18 19 19 19 19 19 19 19 20
18 19 19 19 18 18 18 18 18 19 19 19 18 19 19 19 19 20 20 21 21 20 20 20 20 19 19 19 19 19 19 20 20 20 20 20 20 20
19 19 20 20 19 19 19 19 19 19 19 19 19 19 20 20 20 20 21 21 21 20 20 19 19 18 18 19 19 19 19 20 20 21 21 21 21 20
20 20 20 19 19 19 19 19 19 20 20 20 20 20 21 22 22 21 21 20 20 20 19 19 19 19 19 20 20 20 20 21 21 21 22 22 22 22
19 19 19 19 19 19 19 19 20 21 21 21 21 22 22 22 22 21 21 20 20 20 20 20 20 20 20 20 21 21 22 22 22 22 22 23 23 24
19 19 19 19 19 19 20 20 20 20 21 21 22 22 23 22 22 21 21 21 21 21 21 21 21 21 21 21 21 22 22 23 22 23 23 24 24 24
19 19 19 19 19 19 20 20 20 21 21 21 22 23 23 22 22 22 22 22 22 22 22 22 22 22 22 22 22 23 23 23 24 23 23 24 25 25
19 19 18 19 19 19 19 20 20 21 21 22 22 23 23 23 22 23 23 24 24 24 23 23 23 23 23 23 24 24 24 24 24 24 24 25 25 26
20 19 19 19 19 19 20 21 21 22 22 22 23 23 23 23 24 24 24 25 25 25 25 25 25 24 25 25 25 25 25 25 25 26 26 26 26 27
20 20 20 20 20 20 21 22 22 22 23 23 23 23 23 23 24 24 24 25 25 25 26 26 26 26 25 25 26 26 26 27 27 27 27 27 27 28
21 21 22 22 22 22 22 23 23 23 23 23 24 23 23 24 24 25 25 25 26 26 26 27 27 27 27 27 26 26 27 27 28 28 29 29 29 29
22 22 22 22 22 23 24 24 25 24 24 24 24 24 24 24 24 25 25 26 26 27 27 27 27 27 28 28 28 28 28 28 28 29 29 30 30 30
23 23 23 23 23 24 25 25 26 25 25 25 25 25 25 24 24 25 25 26 27 27 28 28 28 28 29 29 29 29 29 29 29 29 29 29 29 29
23 23 23 24 25 26 26 26 26 25 25 26 26 26 26 25 25 26 26 26 27 27 28 29 29 29 29 30 30 30 30 30 30 30 30 29 29 29
24 24 24 25 25 26 26 26 26 26 26 26 26 26 26 26 26 26 27 27 27 27 28 29 29 30 30 30 30 29 29 29 30 30 30 29 29 28
25 25 25 25 26 27 27 27 26 26 26 26 26 26 26 26 27 27 28 28 28 28 29 29 30 30 30 29 29 29 29 29 29 29 29 28 28 28
25 25 25 25 26 26 26 26 26 27 27 27 27 27 27 27 28 29 29 29 29 29 29 29 29 29 29 28 28 29 29 29 29 29 29 28 28 28
25 25 25 26 26 26 26 26 27 27 27 28 27 27 27 28 28 29 30 30 30 29 29 29 29 29 28 27 27 27 28 28 28 28 28 28 28 28
27 27 27 27 27 27 27 26 26 27 27 28 28 28 28 28 28 29 29 30 29 29 28 28 28 28 27 27 27 27 28 28 28 28 29 29 29 29
28 28 29 29 29 28 27 27 27 27 27 28 29 29 29 29 29 29 29 29 29 28 27 27 27 26 26 27 27 26 26 27 28 28 28 29 29 28
28 28 28 28 28 27 27 27 27 27 27 28 28 29 29 29 29 29 29 29 28 27 26 26 26 26 26 26 26 26 25 25 26 26 26 27 28 28

GEFSNE_500_meanwind_294.txt.gz
Wind_Speed
17 17 17 17 16 17 18 18 18 17 17 17 18 18 17 17 18 18 18 18 19 19 20 20 20 19 19 18 18 18 19 19 20 21 21 21 21 21
17 18 18 18 18 18 18 18 18 18 18 18 18 18 18 18 18 18 18 19 20 20 20 21 20 20 20 19 18 19 19 20 21 21 22 21 21 21
18 18 18 19 19 19 19 19 19 19 18 18 19 19 19 19 19 19 20 20 20 21 21 21 20 20 20 20 20 20 20 21 22 22 22 22 22 21
19 19 19 19 19 19 19 19 19 19 19 19 19 19 20 20 20 20 20 20 21 21 21 21 20 20 20 20 21 21 21 21 22 22 22 22 22 22
20 20 20 20 19 19 19 19 19 19 19 19 20 20 20 20 20 21 21 20 21 21 21 21 21 20 21 21 21 20 20 20 21 21 22 22 22 22
20 20 20 19 19 19 18 18 18 19 19 19 20 20 20 20 21 21 21 21 21 22 22 21 21 21 21 21 20 20 20 20 20 21 22 23 23 23
20 20 19 19 19 18 18 17 17 18 18 19 19 19 19 20 20 21 21 21 21 22 21 21 21 21 21 21 21 21 21 21 21 21 22 23 23 23
20 19 19 18 18 17 17 17 17 18 18 18 19 19 19 20 20 21 21 21 20 20 21 21 22 22 22 21 21 22 22 22 22 23 23 24 24 24
19 19 19 18 18 18 18 18 18 18 18 19 20 20 20 21 21 21 21 21 21 21 21 21 22 22 22 22 22 22 23 23 23 24 24 24 25 25
19 19 19 19 19 19 19 19 19 19 20 21 21 21 21 22 22 21 21 21 22 22 22 22 22 23 23 23 23 23 23 24 24 25 25 25 26 27
19 19 19 19 19 19 20 20 20 20 21 21 22 23 23 22 22 23 23 23 23 23 23 23 23 24 24 24 24 24 25 25 26 26 26 26 26 27
19 19 19 19 19 19 20 20 21 21 22 22 23 24 24 23 23 24 24 24 24 24 24 24 24 25 25 25 25 25 26 26 26 26 26 27 27 28
20 20 20 20 20 21 21 22 22 22 22 23 24 24 24 24 24 25 25 25 25 25 25 25 25 25 25 25 25 25 25 26 26 26 27 28 28 28
20 20 21 21 21 21 22 22 23 23 23 23 24 25 24 25 25 25 25 25 25 25 25 25 25 25 25 25 25 25 26 26 26 27 27 28 29 29
21 21 21 22 22 23 23 23 24 25 25 25 25 25 25 25 26 25 25 25 25 25 25 25 25 25 26 26 26 26 26 27 27 27 27 27 28 28
22 22 22 23 24 24 24 24 25 25 25 25 25 25 26 25 25 25 25 25 25 26 26 26 25 25 26 26 26 26 27 27 27 27 27 27 28 28
24 23 24 24 24 25 26 25 26 26 26 26 26 26 26 26 26 26 25 25 26 26 26 26 26 26 26 27 27 27 26 26 26 26 27 28 28 28
26 26 26 25 25 26 26 26 26 27 27 27 27 27 27 27 26 26 26 27 26 27 26 27 27 27 27 27 27 26 26 26 26 26 27 26 27 28
27 28 27 27 27 27 27 27 27 28 28 28 28 28 28 27 27 27 27 28 28 28 28 28 28 27 27 26 26 27 27 27 26 26 26 26 26 26
28 28 28 28 28 28 28 28 28 29 29 29 29 29 28 28 28 28 28 29 29 29 29 29 28 27 27 26 26 27 27 26 26 26 27 27 27 27
28 28 28 29 29 29 29 29 29 29 29 29 29 29 29 29 29 29 29 29 29 29 29 28 27 27 27 27 26 26 27 27 27 27 27 28 28 27
29 29 29 29 29 29 29 29 29 29 30 30 30 30 29 29 29 30 30 30 30 30 29 28 27 28 28 28 27 27 28 28 28 27 27 28 28 27
30 30 30 30 30 30 30 30 30 30 30 30 30 30 30 29 30 30 30 30 30 29 29 29 29 29 29 29 29 29 28 28 28 28 27 28 27 27